CAPE
16 14 20 11 8 8 7 16 11 6 14 19 22 17 20 14 12 13 13 8 8 3 0 4 15 39 0 0 0 0 0 33 0 1 0 0 0 0 0 0 0 0 0 0 0 0 0
12 11 9 13 15 11 7 13 7 13 14 17 19 13 12 15 11 11 6 3 3 1 17 13 7 4 0 0 0 0 1 37 0 15 0 0 0 0 0 0 0 0 0 0 0 0 0
9 16 12 10 11 17 12 12 14 13 12 9 14 9 11 6 10 8 2 4 9 3 4 6 14 1 0 0 0 0 42 23 0 23 1 0 0 0 0 0 0 0 0 0 0 0 0
13 14 9 7 13 10 12 8 11 13 13 11 9 7 6 5 5 2 1 1 1 5 0 5 48 1 1 0 0 0 22 29 71 55 0 0 0 0 0 0 0 0 0 0 0 0 0
10 10 11 6 5 5 2 2 7 2 5 3 8 3 5 7 3 3 0 0 1 4 4 12 22 1 0 0 0 0 8 3 112 3 0 0 0 0 0 0 0 0 0 0 0 0 0
5 4 2 8 7 6 7 8 3 1 1 1 8 7 6 7 3 0 0 3 5 5 40 11 1 0 0 0 0 0 0 0 2 2 0 0 0 0 0 0 0 0 0 0 0 0 0
5 10 4 7 4 7 11 6 0 2 4 2 2 6 10 5 2 0 0 16 3 4 21 2 0 0 0 0 0 0 0 0 0 0 0 0 0 0 0 0 0 0 0 0 0 0 0
7 6 7 2 7 4 1 3 5 1 1 4 3 5 5 10 0 0 0 9 1 0 0 0 0 0 0 0 0 0 0 0 0 0 0 0 0 0 0 0 0 0 0 0 0 0 0
1 6 4 5 6 5 3 5 3 4 3 1 1 3 9 4 0 0 0 7 0 0 0 0 0 0 0 0 0 10 0 0 0 0 0 0 0 0 0 0 0 0 0 0 0 0 0
3 3 6 3 1 5 3 3 4 4 1 2 3 3 3 0 0 0 0 0 0 0 0 0 0 0 0 0 0 0 0 0 0 0 0 0 0 0 0 0 0 0 0 0 0 0 0
2 5 4 1 6 4 4 3 2 5 2 2 1 3 0 0 0 0 0 0 0 0 0 0 0 0 0 0 0 0 0 0 0 0 0 0 0 0 0 0 0 0 0 0 0 0 0
4 2 3 2 4 4 2 2 1 2 2 1 0 0 0 0 0 0 0 0 0 0 0 0 0 0 0 0 0 0 0 0 0 0 0 0 0 0 0 0 0 0 0 0 0 0 0
1 5 4 4 5 2 2 1 1 0 0 0 0 0 0 0 0 0 0 0 0 0 0 0 0 0 0 0 0 6 0 0 0 0 0 0 0 0 0 0 0 0 0 0 1 0 0
3 2 5 3 4 4 2 1 1 0 0 0 0 0 0 0 0 0 0 0 0 0 0 0 0 0 0 0 1 2 13 4 0 0 0 0 0 0 0 0 0 0 0 1 0 0 2
4 4 1 6 3 4 2 0 1 0 0 0 0 0 0 0 0 0 0 0 0 0 0 0 5 0 2 0 0 3 15 0 1 0 0 0 0 0 0 0 0 0 0 0 0 0 0
3 4 4 4 3 4 1 0 0 0 0 0 0 0 0 0 0 0 0 0 0 0 0 0 0 1 0 5 0 0 0 0 3 0 0 0 0 0 0 0 0 0 0 0 0 0 0
4 2 3 3 1 2 2 0 0 0 0 0 0 0 0 0 0 1 0 0 0 0 0 0 6 3 0 0 0 1 1 0 0 3 3 1 0 0 0 0 0 0 0 0 0 0 1
2 3 3 3 2 1 1 0 0 0 0 0 0 0 0 0 0 0 0 0 0 0 0 0 3 3 0 1 0 0 0 0 0 0 1 0 0 0 0 0 0 0 0 0 0 0 0
2 5 5 3 2 2 0 1 0 0 0 0 0 0 0 0 0 0 0 0 0 0 0 0 0 8 17 13 6 1 0 0 0 0 0 1 0 0 0 0 0 0 0 0 0 0 0
3 3 4 3 3 3 1 0 0 0 0 0 0 0 0 0 0 0 0 0 0 0 0 0 0 0 1 4 2 4 0 0 1 1 0 0 0 0 0 0 0 0 0 0 0 0 0
5 6 5 4 5 5 2 0 0 0 0 0 0 0 0 0 0 0 0 0 0 0 0 0 0 0 0 3 4 0 0 0 0 0 2 0 0 0 0 0 0 0 0 0 0 0 0
2 1 3 6 4 6 3 1 1 0 0 0 0 0 0 0 0 0 0 0 0 0 0 0 0 0 0 0 2 0 0 0 0 0 1 0 0 0 0 0 0 0 0 0 0 0 1
8 5 4 2 7 5 4 2 2 1 0 0 0 0 0 0 0 0 0 0 0 0 0 0 0 0 0 0 0 0 0 0 0 0 0 0 0 0 0 0 0 0 0 0 0 0 0
12 9 7 2 7 2 4 2 4 12 0 0 0 0 0 0 0 0 0 0 0 0 0 0 0 0 0 0 0 0 0 0 0 0 0 0 0 0 0 0 0 0 0 0 0 0 0
6 7 5 4 6 4 5 3 3 6 2 0 0 0 0 0 0 0 0 0 0 0 0 0 0 0 0 0 0 0 0 0 0 0 0 1 0 0 0 0 0 0 0 0 0 0 0
6 4 9 9 6 4 9 5 4 6 9 0 0 0 0 0 0 0 0 0 0 0 0 0 0 0 0 0 0 0 0 0 0 0 0 0 0 0 0 0 0 0 0 0 0 0 0
7 9 9 8 7 5 6 4 8 5 4 6 0 0 0 0 0 0 0 0 0 0 0 0 0 0 0 1 2 1 0 0 0 0 0 0 0 0 0 0 0 0 0 0 0 0 0
12 9 5 7 3 7 9 3 2 18 3 11 0 0 0 1 0 0 0 0 0 1 0 0 0 0 0 2 7 10 0 0 0 0 0 0 0 0 0 0 0 0 0 0 0 0 0
5 4 5 4 8 6 3 7 1 16 9 18 1 0 0 0 0 0 0 0 0 0 0 0 0 0 0 0 0 0 0 0 0 0 0 0 0 0 0 0 0 0 0 0 0 1 0
CIN
-0 -0 -0 -1 -1 -0 -0 -0 -0 -1 -0 -0 -0 -0 -1 -1 -0 -3 -1 -2 -3 -0 -0 -52 -26 -19 -0 -0 -0 -0 -0 -175 -0 -51 -0 -0 -0 -0 -0 -0 -0 -0 -0 -0 -0 -0 -0
-0 -0 -0 -0 -1 -0 -1 -0 -0 -0 -1 -1 -0 -0 -1 -0 -1 -1 -0 -1 -1 -0 -0 -35 -23 -2 -0 -0 -0 -0 -13 -172 -0 -217 -0 -0 -0 -0 -0 -0 -0 -0 -0 -0 -0 -0 -0
-1 -0 -0 -0 -0 -0 -0 -0 -0 -0 -0 -0 -1 -0 -2 -1 -0 -0 -0 -0 -0 -0 -0 -10 -51 -9 -0 -0 -0 -0 -151 -170 -0 -166 -202 -0 -0 -0 -0 -0 -0 -0 -0 -0 -0 -0 -0
-0 -1 -0 -1 -1 -1 -0 -0 -0 -0 -0 -0 -0 -0 -0 -0 -0 -0 -0 -3 -10 -0 -3 -14 -18 -7 -3 -0 -0 -0 -167 -154 -88 -97 -0 -0 -0 -0 -0 -0 -0 -0 -0 -0 -0 -0 -0
-0 -1 -0 -0 -1 -0 -1 -0 -0 -0 -0 -0 -0 -0 -0 -0 -0 -0 -0 -0 -25 -5 -12 -19 -21 -21 -0 -0 -0 -0 -144 -31 -52 -34 -0 -0 -0 -0 -0 -0 -0 -0 -0 -0 -0 -0 -0
-1 -1 -1 -1 -0 -1 -0 -0 -0 -0 -0 -0 -0 -0 -1 -1 -1 -0 -0 -21 -6 -1 -27 -16 -13 -0 -0 -0 -0 -0 -0 -0 -27 -20 -0 -0 -0 -0 -0 -0 -0 -0 -0 -0 -0 -0 -0
-1 -1 -0 -0 -0 -0 -0 -1 -1 -0 -0 -0 -1 -1 -1 -1 -0 -0 -0 -1 -0 -0 -0 -0 -31 -0 -0 -0 -0 -0 -0 -0 -0 -0 -0 -0 -0 -0 -0 -0 -0 -0 -0 -0 -0 -0 -0
-1 -1 -0 -1 -0 -0 -1 -0 -0 -1 -0 -1 -0 -1 -1 -2 -0 -0 -0 -1 -0 -0 -0 -0 -64 -0 -0 -0 -0 -0 -0 -0 -0 -0 -0 -0 -0 -0 -0 -0 -0 -0 -0 -0 -0 -0 -0
-1 -0 -0 -0 -0 -0 -0 -0 -0 -0 -0 -0 -0 -1 -2 -3 -0 -0 -5 -4 -0 -0 -0 -0 -0 -0 -0 -0 -0 -25 -0 -0 -0 -0 -0 -0 -0 -0 -0 -0 -0 -0 -0 -0 -0 -0 -0
-1 -1 -1 -1 -1 -0 -0 -0 -1 -0 -0 -0 -0 -1 -2 -0 -0 -0 -0 -0 -0 -3 -0 -0 -0 -18 -0 -0 -0 -0 -0 -0 -0 -0 -0 -0 -0 -0 -0 -0 -0 -0 -0 -0 -0 -0 -0
-1 -0 -1 -1 -1 -0 -1 -0 -0 -0 -0 -0 -1 -0 -0 -0 -0 -0 -0 -0 -0 -0 -0 -0 -0 -0 -0 -0 -0 -0 -0 -0 -0 -0 -0 -0 -0 -0 -0 -0 -0 -0 -0 -0 -0 -0 -0
-0 -0 -0 -0 -0 -0 -0 -0 -0 -0 -0 -0 -0 -0 -0 -0 -0 -0 -0 -0 -0 -0 -0 -0 -0 -0 -0 -0 -0 -0 -0 -0 -0 -0 -0 -0 -0 -0 -0 -0 -0 -0 -0 -0 -0 -0 -0
-0 -0 -0 -1 -1 -0 -0 -0 -0 -0 -0 -0 -0 -0 -0 -0 -0 -0 -0 -0 -0 -0 -0 -0 -0 -0 -0 -0 -0 -15 -0 -0 -0 -0 -0 -0 -0 -0 -0 -0 -0 -0 -0 -1 -6 -0 -0
-0 -0 -0 -0 -0 -0 -0 -0 -0 -0 -0 -0 -0 -0 -0 -0 -0 -0 -0 -0 -0 -0 -0 -0 -0 -0 -0 -0 -1 -1 -0 -0 -0 -0 -0 -0 -0 -0 -0 -0 -0 -0 -0 -1 -2 -0 -3
-0 -1 -0 -0 -0 -1 -0 -0 -0 -0 -0 -0 -0 -0 -0 -0 -0 -0 -0 -0 -0 -0 -0 -0 -11 -4 -10 -3 -0 -1 -0 -0 -3 -1 -0 -0 -0 -0 -0 -0 -0 -0 -0 -0 -0 -0 -0
-0 -0 -0 -0 -0 -1 -0 -0 -0 -0 -0 -0 -0 -0 -0 -0 -0 -0 -0 -0 -0 -0 -0 -0 -0 -5 -0 -1 -0 -0 -0 -0 -1 -0 -0 -0 -0 -0 -0 -0 -0 -0 -0 -0 -0 -0 -0
-0 -0 -0 -0 -0 -1 -0 -1 -0 -0 -0 -0 -0 -0 -0 -0 -0 -1 -0 -0 -0 -0 -0 -0 -2 -1 -0 -0 -0 -0 -0 -0 -0 -0 -0 -0 -0 -0 -0 -0 -0 -0 -0 -0 -0 -0 -2
-1 -1 -0 -1 -0 -0 -0 -0 -0 -0 -0 -0 -0 -0 -0 -0 -0 -0 -0 -0 -0 -0 -0 -0 -5 -13 -0 -7 -0 -1 -0 -0 -0 -0 -0 -0 -0 -0 -0 -0 -0 -0 -0 -0 -0 -0 -0
-0 -0 -0 -0 -1 -0 -0 -0 -0 -0 -0 -0 -0 -0 -0 -0 -0 -0 -0 -0 -0 -0 -0 -0 -3 -6 -5 -0 -0 -1 -0 -0 -0 -0 -0 -0 -0 -0 -0 -0 -0 -0 -0 -0 -0 -0 -0
-0 -0 -0 -0 -0 -0 -0 -0 -1 -0 -0 -0 -0 -0 -0 -0 -0 -0 -0 -0 -0 -0 -0 -0 -0 -0 -3 -2 -2 -1 -0 -0 -0 -0 -0 -0 -0 -0 -0 -0 -0 -0 -0 -0 -0 -0 -0
-0 -0 -0 -1 -0 -0 -1 -0 -0 -0 -0 -0 -0 -0 -0 -0 -0 -0 -0 -0 -0 -0 -0 -0 -0 -0 -0 -1 -2 -0 -0 -0 -0 -0 -0 -0 -0 -0 -0 -0 -0 -0 -0 -0 -0 -0 -0
-1 -1 -0 -0 -1 -1 -0 -0 -1 -0 -0 -0 -0 -0 -0 -0 -0 -0 -0 -0 -0 -0 -0 -0 -0 -0 -0 -0 -0 -0 -0 -0 -0 -0 -0 -0 -0 -0 -0 -0 -0 -0 -0 -0 -0 -0 -0
-0 -0 -0 -1 -1 -0 -0 -0 -0 -1 -0 -0 -0 -0 -0 -0 -0 -0 -0 -0 -0 -0 -0 -0 -0 -0 -0 -0 -0 -0 -0 -0 -0 -0 -0 -0 -0 -0 -0 -0 -0 -0 -0 -0 -0 -0 -0
-0 -0 -1 -1 -0 -1 -0 -1 -1 -1 -0 -0 -0 -0 -0 -0 -0 -0 -0 -0 -0 -0 -0 -0 -0 -0 -0 -0 -0 -0 -0 -0 -0 -0 -0 -0 -0 -0 -0 -0 -0 -0 -0 -0 -0 -0 -0
-0 -1 -0 -0 -1 -1 -0 -1 -0 -0 -10 -0 -0 -0 -0 -0 -0 -0 -0 -0 -0 -0 -0 -0 -0 -0 -0 -0 -0 -0 -0 -0 -0 -0 -0 -0 -0 -0 -0 -0 -0 -0 -0 -0 -0 -0 -0
-0 -0 -0 -0 -0 -0 -0 -0 -1 -0 -0 -1 -0 -0 -0 -0 -0 -0 -0 -0 -0 -0 -0 -0 -0 -0 -0 -0 -0 -0 -0 -0 -0 -0 -0 -0 -0 -0 -0 -0 -0 -0 -0 -0 -0 -0 -0
-0 -0 -0 -0 -0 -1 -0 -1 -1 -1 -1 -9 -0 -0 -0 -0 -0 -0 -0 -0 -0 -0 -0 -0 -0 -0 -0 -0 -1 -1 -0 -0 -0 -0 -0 -0 -0 -0 -0 -0 -0 -0 -0 -0 -0 -0 -0
-0 -1 -0 -0 -0 -1 -0 -0 -1 -1 -0 -6 -0 -0 -0 -0 -0 -0 -0 -0 -0 -0 -0 -0 -0 -0 -0 -0 -0 -2 -0 -0 -0 -0 -0 -0 -0 -0 -0 -0 -0 -0 -0 -0 -0 -0 -0
-0 -0 -0 -0 -0 -0 -1 -0 -2 -0 -0 -1 -3 -0 -0 -0 -0 -0 -0 -0 -0 -0 -0 -0 -0 -0 -0 -0 -0 -0 -0 -0 -0 -0 -0 -0 -0 -0 -0 -0 -0 -0 -0 -0 -0 -0 -0
Wind_Speed
31 32 31 30 29 27 26 23 24 27 26 31 29 20 19 22 23 26 24 24 24 23 20 18 18 6 11 18 22 18 23 16 15 15 13 14 14 15 17 15 14 17 17 14 12 11 10
31 31 30 29 29 27 26 23 23 25 27 26 31 24 17 6 6 18 23 24 23 22 22 17 16 3 15 19 16 20 18 8 15 15 14 13 16 16 15 15 19 14 10 10 13 12 10
31 31 31 29 28 29 27 23 22 22 25 24 27 32 14 7 4 11 21 23 23 18 22 21 13 10 17 21 16 21 12 10 15 16 15 14 13 16 12 14 9 7 12 12 15 14 15
30 31 30 30 29 28 27 24 21 21 21 22 22 31 10 8 2 9 11 19 20 18 10 16 5 15 20 17 19 16 11 10 13 17 18 18 14 13 15 6 12 16 16 20 18 16 15
30 30 31 30 30 28 28 26 22 19 20 20 19 10 25 6 8 5 11 19 20 13 12 11 9 15 20 18 17 14 12 9 10 15 15 14 13 15 12 13 17 20 22 22 20 20 17
29 30 32 31 31 30 28 27 22 19 18 19 18 9 21 26 19 10 8 12 14 12 11 11 13 17 19 16 13 10 13 7 11 12 13 16 17 17 17 18 24 22 23 23 22 20 20
31 30 31 32 32 31 28 27 25 19 17 17 20 13 10 19 21 14 15 14 12 12 8 13 16 15 14 14 10 12 7 8 11 12 17 17 20 22 17 19 25 22 22 21 22 20 22
30 31 32 32 32 32 30 27 26 21 16 17 17 18 18 20 16 16 14 14 15 17 16 14 14 20 17 13 12 6 9 9 10 14 17 20 24 20 19 18 19 18 18 21 20 19 23
31 31 32 32 33 32 31 29 27 22 19 16 15 17 18 17 15 13 13 14 16 18 17 16 11 19 16 8 13 6 9 13 12 16 18 23 25 20 17 19 19 19 20 19 22 18 22
31 31 32 32 33 33 31 30 29 23 22 17 14 15 22 21 17 15 12 15 18 19 19 16 16 19 13 11 13 11 9 12 17 16 20 29 24 17 21 21 19 24 21 17 16 18 29
31 32 31 32 32 33 33 32 30 26 25 19 20 19 19 19 17 15 14 16 15 16 17 15 15 14 12 12 10 13 11 19 20 18 20 23 19 19 20 17 15 23 13 14 16 22 26
31 32 32 32 33 34 34 33 31 29 26 23 23 21 19 18 17 15 16 15 14 14 9 17 16 15 11 16 16 10 10 16 20 20 27 28 23 21 24 24 19 11 13 15 17 23 36
30 32 32 33 34 34 35 34 32 30 27 24 21 19 19 17 16 15 14 13 10 7 18 19 18 18 15 16 18 15 13 13 15 17 15 21 23 22 17 18 15 17 15 23 26 28 35
30 31 33 33 34 34 35 35 34 32 28 23 19 18 17 16 16 15 13 12 9 12 18 20 20 19 21 18 21 20 22 23 22 23 19 18 24 19 17 20 21 18 19 23 28 29 29
30 31 33 34 34 34 36 37 36 34 28 22 17 17 16 16 16 14 11 12 9 10 20 22 22 24 22 22 23 21 23 28 29 26 27 26 29 18 16 21 16 21 24 17 29 26 29
30 32 34 34 34 35 36 38 38 37 30 21 17 17 17 17 16 13 10 12 8 15 20 22 24 23 26 26 24 25 24 24 28 28 26 28 31 23 21 21 22 23 17 23 24 29 31
30 32 33 35 36 37 38 39 40 40 33 19 17 18 16 17 14 12 12 11 8 17 19 21 25 27 28 28 27 28 27 26 24 25 25 26 29 27 23 23 20 22 20 23 25 24 31
29 31 33 35 36 38 39 41 42 42 34 21 18 20 15 15 15 13 13 11 11 14 20 23 25 27 29 27 29 29 28 30 26 26 25 23 26 36 31 26 28 28 23 23 29 24 23
29 31 33 35 36 38 39 41 42 42 31 22 21 18 15 14 18 16 13 12 11 13 15 19 21 24 24 28 32 28 29 24 24 26 27 24 27 30 31 33 31 30 27 28 27 31 29
29 30 32 35 36 38 39 40 42 42 31 22 21 22 19 16 16 16 18 16 12 14 20 21 23 24 28 31 30 32 29 27 25 26 25 26 31 33 35 30 28 35 31 29 27 34 33
29 31 32 34 36 37 38 40 41 42 30 21 24 22 20 22 20 18 17 16 14 13 17 22 21 24 27 31 32 35 33 31 29 29 27 26 35 34 36 31 30 30 33 31 31 29 34
28 29 32 33 34 36 37 39 40 41 29 24 24 23 21 21 20 20 19 18 16 14 13 17 22 27 28 32 33 40 35 34 34 28 28 27 34 31 36 33 35 35 33 33 32 35 40
28 29 31 32 33 34 36 37 38 38 32 24 23 20 21 21 21 22 21 19 17 17 18 22 24 29 33 34 33 34 34 33 35 33 31 30 30 32 39 31 33 43 38 32 31 30 34
27 29 30 31 32 33 34 35 35 34 31 24 23 21 24 25 23 23 22 20 19 18 18 24 30 30 30 27 29 30 32 35 35 36 32 34 32 31 34 28 39 32 28 31 34 31 28
27 28 29 30 30 31 32 32 33 32 28 25 22 22 24 27 24 25 23 22 22 21 22 24 31 31 30 32 35 36 35 35 36 34 34 33 31 34 35 37 35 32 26 27 31 35 27
27 28 28 29 29 30 31 31 31 30 27 24 22 20 22 26 26 23 26 24 27 25 25 23 26 28 27 30 33 38 40 35 35 31 29 30 31 33 33 37 39 29 25 23 23 37 22
27 28 28 29 29 29 30 30 30 28 26 23 22 20 22 26 22 22 27 26 22 24 25 28 29 27 23 29 34 37 39 31 37 35 32 31 32 37 35 37 32 25 22 20 28 28 17
26 28 29 29 30 30 30 30 30 28 25 21 23 18 22 25 23 19 20 22 22 22 26 24 24 18 19 22 27 32 34 32 33 30 30 32 31 34 32 35 38 20 18 23 20 14 10
26 29 30 30 29 30 31 30 29 27 24 20 23 18 18 22 23 18 17 17 19 19 19 18 17 19 20 20 21 24 28 27 30 34 26 33 28 28 27 27 20 17 17 14 11 4 5
Wind_Direction
32 31 30 30 30 31 32 34 30 20 19 4 7 26 25 10 348 311 293 298 295 308 326 331 284 288 281 270 263 277 269 253 230 232 225 237 238 252 259 257 261 265 262 273 271 266 262
33 32 32 32 31 31 32 34 32 28 20 17 357 18 32 51 64 257 281 292 296 313 286 329 286 301 277 270 278 281 273 233 229 225 228 236 250 260 264 265 260 268 262 261 267 262 253
33 33 32 33 32 31 32 34 35 32 25 23 10 347 33 48 202 227 261 271 268 245 245 264 293 286 276 269 284 275 279 243 232 228 228 239 252 257 264 261 260 251 261 266 265 260 261
34 33 33 34 33 33 32 33 35 34 31 26 23 322 279 45 110 214 209 240 243 231 129 282 23 281 271 289 276 276 267 255 232 240 239 248 251 261 264 259 263 263 261 257 261 260 250
35 34 33 34 33 33 32 33 34 34 31 30 27 297 299 55 61 112 189 245 279 331 59 58 323 288 275 286 273 272 261 242 225 241 242 247 248 261 257 249 257 257 259 257 258 262 258
36 34 33 33 33 33 33 32 32 32 31 30 31 38 345 353 17 82 146 179 356 34 34 13 340 295 284 285 285 271 258 220 235 227 234 243 248 252 251 244 252 255 257 260 258 258 258
34 35 33 32 33 32 33 31 31 31 32 32 32 41 47 26 5 55 61 60 21 347 352 324 316 301 305 290 292 269 251 231 237 222 235 239 244 241 244 250 265 260 257 257 261 262 258
35 34 33 32 32 31 32 31 30 31 32 34 37 37 40 29 30 7 46 28 338 310 312 177 312 282 292 288 284 259 247 248 220 226 242 246 246 253 256 256 263 261 256 262 267 264 262
34 34 32 32 30 30 30 31 30 31 31 36 40 40 41 47 57 38 35 35 337 318 311 313 311 292 286 301 282 240 238 258 236 237 237 247 258 254 249 251 257 262 258 261 265 261 268
31 32 31 30 29 28 29 29 30 31 32 37 40 47 38 52 66 45 40 17 341 327 307 315 304 294 287 299 289 275 234 259 261 243 249 255 259 249 252 249 250 260 265 263 261 254 261
28 28 28 28 26 25 26 27 29 32 33 39 41 46 51 44 48 53 23 359 15 347 317 322 308 314 297 276 305 272 253 261 258 255 254 258 253 249 249 237 238 265 268 263 263 263 268
24 24 25 25 24 23 23 24 27 30 32 37 42 47 55 56 43 33 12 10 25 5 341 308 311 302 293 277 281 292 250 272 266 262 259 258 267 254 255 256 251 247 269 275 275 270 264
21 21 23 22 22 22 21 21 24 27 29 35 45 53 50 52 56 35 14 14 46 67 326 304 305 296 289 281 278 273 254 247 261 261 254 260 261 263 257 253 243 242 247 267 267 266 267
17 18 18 19 19 19 18 18 18 20 24 31 42 51 51 48 38 43 43 39 38 16 327 312 300 296 282 283 275 272 263 256 260 266 267 254 259 248 246 252 251 222 227 259 263 269 270
13 13 14 15 16 15 14 13 13 14 18 25 39 43 47 41 34 36 64 31 36 18 320 311 300 287 284 280 276 270 268 266 263 258 262 263 262 263 247 255 241 250 233 220 273 281 274
10 8 8 10 11 11 10 8 8 8 12 23 32 32 34 31 35 47 48 20 33 348 319 311 299 293 286 279 273 270 270 277 270 260 258 266 265 266 257 258 253 257 243 248 257 267 271
6 6 5 6 7 7 6 4 2 4 7 24 26 19 31 28 40 41 13 17 18 337 327 311 296 289 286 284 281 273 273 275 275 275 257 261 261 268 259 245 240 252 243 253 263 255 270
6 4 4 3 4 4 3 1 359 359 5 22 18 9 27 31 22 20 4 10 12 343 324 313 301 290 287 287 281 278 278 272 278 272 264 260 268 258 257 264 261 256 245 233 259 260 239
4 3 2 2 2 4 3 360 358 357 9 16 12 12 27 29 4 1 4 0 357 346 336 324 310 296 292 286 280 281 280 286 284 274 268 265 264 263 261 260 261 255 254 259 252 268 261
3 2 2 0 0 2 2 1 359 357 8 19 12 5 14 18 15 3 353 350 354 349 329 317 309 303 293 284 282 278 283 283 280 277 275 278 266 259 259 267 261 252 251 254 253 258 262
360 360 359 359 359 360 2 1 359 358 8 19 13 8 10 360 0 360 358 354 344 344 334 317 315 304 296 288 284 277 281 281 279 278 276 274 268 268 263 268 265 266 254 250 250 254 260
357 359 357 358 358 360 1 2 1 360 10 17 8 6 7 1 2 359 358 354 349 346 339 328 315 305 299 289 284 279 281 278 276 280 275 275 268 270 268 268 265 264 261 257 251 254 263
356 356 356 357 358 360 1 3 3 5 12 15 15 14 6 1 358 355 352 351 348 344 330 318 315 305 298 293 292 287 283 282 276 275 273 272 271 269 266 271 268 262 257 256 259 260 263
353 353 354 356 357 359 1 2 4 7 15 16 12 9 359 351 350 348 346 343 336 333 320 317 307 306 301 306 301 294 287 279 275 271 271 268 267 269 267 267 262 270 272 263 260 263 266
351 352 352 354 356 358 360 1 2 4 11 12 13 6 357 346 346 342 344 341 335 331 321 313 306 302 302 297 290 285 280 276 272 270 266 264 264 264 263 261 270 273 274 269 261 261 264
348 350 351 353 354 355 357 359 360 1 6 9 8 11 359 348 347 348 342 341 335 332 328 322 316 308 302 293 284 278 272 271 268 269 270 265 262 260 260 262 261 272 277 278 276 263 263
347 348 349 350 353 354 355 356 358 359 2 6 3 8 358 348 351 351 342 341 343 337 328 324 321 312 302 290 279 273 270 271 264 262 261 260 258 254 258 260 269 279 281 278 260 271 266
345 346 348 350 351 352 353 354 355 357 360 4 360 8 358 349 347 352 351 346 344 341 335 337 333 331 316 299 286 275 269 266 264 264 262 258 256 255 257 259 259 283 279 269 279 281 260
344 345 346 349 350 351 350 351 354 355 359 4 356 6 7 352 350 357 355 355 351 350 348 348 342 334 332 316 300 287 272 268 263 259 265 257 262 259 261 262 273 277 285 287 286 248 239